FW6909 Weather Reports


Display with metric or nautical units.
time (UTC)temp
F
wind
direction
speed
MPH
gust
MPH
rain 1hr
in
rain 24hr
in
rain mn
in
humidity
%
barometer
mb
20260902222530 58 0 0.0 1.0 0.04 0.82 0.81 90 1006.6
20260902222031 58 0 0.0 1.0 0.03 0.81 0.81 90 1006.7
20260902221547 58 277 0.0 1.0 0.03 0.81 0.80 90 1006.7
20260902221031 58 0 0.0 1.0 0.02 0.80 0.79 90 1006.7
20260902220528 58 0 0.0 1.0 0.01 0.79 0.78 90 1006.6
20260902220048 58 0 0.0 1.0 0.01 0.79 0.78 90 1006.6
20260902215531 58 0 0.0 1.0 0.01 0.79 0.78 90 1006.6
20260902215035 58 0 0.0 1.0 0.01 0.79 0.78 90 1006.6
20260902214551 58 0 0.0 1.0 0.02 0.79 0.78 90 1006.6
20260902214031 58 0 0.0 1.0 0.02 0.78 0.77 90 1006.6
20260902213530 58 0 0.0 1.0 0.04 0.78 0.77 90 1006.7
20260902213047 58 283 0.0 1.0 0.11 0.77 0.77 90 1006.7
20260902212531 58 282 0.0 1.0 0.25 0.77 0.77 90 1006.7
20260902212031 58 258 0.0 1.0 0.37 0.77 0.77 90 1006.8
20260902211544 58 252 0.0 1.0 0.42 0.77 0.77 90 1006.8
20260902211028 58 271 0.0 2.0 0.46 0.77 0.77 90 1006.9
20260902210528 58 0 0.0 2.0 0.47 0.77 0.77 90 1006.9
20260902210051 58 0 1.0 2.0 0.47 0.77 0.77 90 1006.9
20260902205528 59 283 0.0 1.0 0.48 0.77 0.77 90 1007.0
20260902205031 59 285 0.0 1.0 0.48 0.77 0.77 90 1007.0
20260902204553 59 0 0.0 0.0 0.48 0.77 0.76 90 1006.8
20260902204031 59 0 0.0 0.0 0.47 0.76 0.75 90 1006.9
20260902203532 59 0 0.0 1.0 0.44 0.74 0.73 90 1006.8
20260902203046 59 0 0.0 1.0 0.37 0.66 0.65 90 1006.9
20260902202528 59 77 0.0 1.0 0.22 0.50 0.49 90 1006.9
20260902202031 59 0 0.0 0.0 0.11 0.40 0.39 90 1007.2
20260902201550 59 0 0.0 0.0 0.06 0.34 0.33 90 1007.3
20260902201034 59 0 0.0 1.0 0.03 0.30 0.29 90 1007.4
20260902200531 59 0 0.0 1.0 0.03 0.30 0.29 90 1007.3
20260902200046 59 82 0.0 1.0 0.03 0.30 0.29 90 1007.3
20260902195533 58 0 0.0 1.0 0.02 0.29 0.29 90 1007.3
20260902195033 58 89 0.0 1.0 0.02 0.29 0.28 90 1007.3
20260902194555 58 87 0.0 1.0 0.02 0.29 0.28 90 1007.4
20260902194028 58 84 1.0 1.0 0.02 0.29 0.28 90 1007.1
20260902193535 58 70 0.0 1.0 0.03 0.29 0.28 90 1007.3
20260902193058 58 0 0.0 1.0 0.02 0.28 0.27 90 1007.4
20260902192531 58 79 0.0 1.0 0.02 0.28 0.27 90 1007.6
20260902192031 58 0 0.0 1.0 0.03 0.28 0.27 90 1007.7
20260902191553 58 0 0.0 1.0 0.02 0.27 0.26 90 1007.6
20260902191032 58 20 0.0 2.0 0.02 0.27 0.26 90 1007.7
20260902190532 58 45 0.0 2.0 0.03 0.27 0.26 90 1007.8
20260902190049 59 89 0.0 2.0 0.03 0.27 0.26 90 1007.7
20260902185534 59 75 0.0 2.0 0.03 0.27 0.26 90 1007.8
20260902185032 59 82 1.0 1.0 0.03 0.26 0.25 90 1007.8
20260902184623 59 0 0.0 1.0 0.03 0.26 0.25 90 1007.9
20260902184028 59 0 0.0 1.0 0.03 0.26 0.25 90 1008.0
20260902183531 58 0 0.0 1.0 0.02 0.25 0.25 90 1007.9
20260902183042 58 0 0.0 2.0 0.03 0.25 0.25 90 1008.0
20260902182531 58 94 0.0 3.0 0.03 0.25 0.25 90 1007.9
20260902182028 58 77 0.0 3.0 0.02 0.25 0.24 90 1007.9
20260902181556 58 74 1.0 3.0 0.02 0.25 0.24 90 1007.8
20260902181028 58 85 0.0 2.0 0.02 0.25 0.24 90 1007.9
20260902180531 58 104 1.0 3.0 0.01 0.24 0.23 90 1008.1
20260902180055 58 64 1.0 3.0 0.01 0.24 0.23 90 1008.1
20260902175531 58 75 1.0 3.0 0.02 0.24 0.23 89 1008.2
20260902175034 59 65 0.0 3.0 0.01 0.23 0.22 90 1008.2
20260902174549 59 67 1.0 4.0 0.01 0.23 0.22 90 1008.3
20260902174031 59 94 1.0 4.0 0.01 0.23 0.22 90 1008.3
20260902173531 59 81 2.0 4.0 0.01 0.23 0.22 89 1008.5
20260902173047 59 61 2.0 4.0 0.01 0.22 0.22 89 1008.6
20260902172528 59 56 1.0 4.0 0.01 0.22 0.22 90 1008.7
20260902172031 58 81 1.0 3.0 0.01 0.22 0.22 89 1008.7
20260902171606 58 77 1.0 3.0 0.02 0.22 0.22 89 1008.7
20260902171028 58 87 1.0 3.0 0.02 0.22 0.22 89 1008.8
20260902170531 58 70 1.0 2.0 0.02 0.22 0.22 89 1009.0
20260902170051 58 69 1.0 2.0 0.02 0.22 0.22 89 1009.0
20260902165533 58 72 1.0 2.0 0.02 0.22 0.21 89 1009.0
20260902165031 58 67 1.0 2.0 0.02 0.22 0.21 89 1009.2
20260902164547 58 61 1.0 2.0 0.02 0.22 0.21 89 1009.1
20260902164031 58 64 1.0 2.0 0.02 0.22 0.21 89 1009.2
20260902163531 58 82 1.0 2.0 0.02 0.22 0.21 89 1009.3
20260902163043 58 83 1.0 2.0 0.01 0.21 0.20 89 1009.4
20260902162530 58 76 1.0 2.0 0.01 0.21 0.20 89 1009.6
20260902162031 58 49 1.0 2.0 0.00 0.20 0.19 89 1009.4
20260902161543 58 62 0.0 1.0 0.00 0.20 0.19 89 1009.5
20260902161034 58 75 1.0 2.0 0.01 0.20 0.19 89 1009.6
20260902160531 58 0 1.0 2.0 0.01 0.20 0.19 89 1009.6
20260902160053 57 64 0.0 2.0 0.01 0.20 0.19 89 1009.7
20260902155531 57 100 0.0 2.0 0.00 0.26 0.18 89 1009.6
20260902155035 57 75 0.0 2.0 0.00 0.26 0.18 89 1009.8
20260902154541 57 90 0.0 2.0 0.00 0.26 0.18 89 1009.9
20260902154031 57 76 1.0 2.0 0.00 0.26 0.18 89 1010.0
20260902153528 57 91 1.0 2.0 0.00 0.26 0.18 89 1010.0
20260902153055 56 85 1.0 2.0 0.00 0.26 0.18 89 1010.1
20260902152532 56 83 1.0 2.0 0.00 0.26 0.18 89 1010.3
20260902152031 56 98 0.0 3.0 0.00 0.26 0.18 89 1010.2
20260902151555 56 82 1.0 3.0 0.00 0.26 0.18 89 1010.4
20260902151034 56 79 2.0 3.0 0.00 0.25 0.18 89 1010.4
20260902150531 56 68 1.0 3.0 0.00 0.25 0.18 89 1010.4
20260902150044 56 79 1.0 3.0 0.00 0.25 0.18 89 1010.5
20260902145532 56 58 2.0 3.0 0.00 0.30 0.18 89 1010.6
20260902145029 56 72 1.0 3.0 0.00 0.30 0.18 89 1010.7
20260902144554 56 58 2.0 3.0 0.00 0.30 0.18 89 1010.7
20260902144032 56 86 2.0 3.0 0.00 0.30 0.18 89 1010.7
20260902143531 56 90 1.0 4.0 0.00 0.30 0.18 89 1010.7
20260902143050 56 82 2.0 4.0 0.00 0.30 0.18 89 1010.7
20260902142531 56 70 2.0 4.0 0.00 0.30 0.18 89 1010.7
20260902142034 56 89 1.0 3.0 0.00 0.30 0.18 89 1010.7
20260902141552 56 101 1.0 3.0 0.00 0.30 0.18 89 1010.9
20260902141031 56 75 1.0 4.0 0.01 0.30 0.18 89 1010.8
20260902140530 56 77 1.0 4.0 0.01 0.30 0.18 89 1010.9
20260902140052 56 79 1.0 3.0 0.01 0.30 0.18 89 1011.0
20260902135530 56 81 0.0 2.0 0.01 0.30 0.18 89 1011.0
20260902135027 56 0 0.0 2.0 0.02 0.30 0.18 89 1011.1
20260902134543 56 59 0.0 2.0 0.02 0.30 0.18 89 1011.1
20260902134027 56 81 1.0 4.0 0.01 0.29 0.17 89 1011.1
20260902133529 56 78 1.0 4.0 0.01 0.29 0.17 89 1011.1
20260902133052 56 76 2.0 4.0 0.02 0.29 0.17 89 1011.2
20260902132531 56 71 1.0 4.0 0.03 0.29 0.17 89 1011.2
20260902132030 56 68 1.0 4.0 0.03 0.29 0.17 88 1011.1
20260902131553 56 91 2.0 4.0 0.03 0.29 0.17 88 1011.1
20260902131030 57 99 1.0 4.0 0.02 0.29 0.16 88 1011.2
20260902130531 57 91 1.0 2.0 0.02 0.29 0.16 89 1011.3
20260902130053 57 83 1.0 2.0 0.02 0.29 0.16 89 1011.4
20260902125527 57 89 1.0 2.0 0.02 0.32 0.16 89 1011.3
20260902125031 57 76 0.0 2.0 0.02 0.31 0.15 89 1011.4
20260902124545 57 80 1.0 3.0 0.02 0.31 0.15 88 1011.4
20260902124030 57 61 1.0 3.0 0.02 0.31 0.15 88 1011.5
20260902123530 57 91 1.0 3.0 0.01 0.30 0.14 88 1011.6
20260902123107 57 72 1.0 3.0 0.01 0.30 0.14 88 1011.5
20260902122531 58 91 1.0 3.0 0.00 0.29 0.14 88 1011.5
20260902122032 58 82 1.0 2.0 0.00 0.29 0.14 89 1011.6
20260902121554 59 79 0.0 1.0 0.00 0.29 0.14 89 1011.6
20260902121031 58 8 0.0 1.0 0.00 0.29 0.14 89 1011.7
20260902120531 58 341 0.0 1.0 0.00 0.29 0.14 89 1011.9
20260902120050 59 310 0.0 1.0 0.00 0.29 0.14 89 1011.9
20260902115531 59 0 0.0 1.0 0.00 0.29 0.14 89 1011.9
20260902115032 59 20 0.0 1.0 0.00 0.29 0.13 89 1012.0
20260902114552 58 0 0.0 1.0 0.00 0.29 0.13 89 1012.0
20260902114032 58 96 0.0 1.0 0.00 0.29 0.13 89 1012.1
20260902113531 58 37 0.0 1.0 0.00 0.29 0.13 89 1012.2
20260902113053 58 53 0.0 1.0 0.00 0.29 0.13 89 1012.3
20260902112531 58 72 0.0 2.0 0.00 0.29 0.13 89 1012.4
20260902112031 58 129 0.0 2.0 0.00 0.29 0.13 89 1012.6
20260902111551 58 24 0.0 2.0 0.00 0.29 0.13 89 1012.7
20260902111031 58 41 0.0 2.0 0.00 0.29 0.13 89 1012.8
20260902110532 58 74 0.0 1.0 0.00 0.29 0.13 89 1012.8
20260902105531 58 0 0.0 1.0 0.00 0.31 0.13 89 1012.8
20260902105032 58 94 0.0 1.0 0.00 0.31 0.13 89 1012.8
20260902104559 57 0 0.0 1.0 0.00 0.31 0.13 89 1012.7
20260902104031 57 32 0.0 1.0 0.00 0.31 0.13 89 1012.8
20260902103531 57 56 0.0 1.0 0.00 0.31 0.13 89 1012.9
20260902103049 57 116 0.0 1.0 0.00 0.31 0.13 89 1012.8
20260902102531 56 31 0.0 2.0 0.00 0.31 0.13 89 1012.8
20260902102031 56 42 0.0 2.0 0.00 0.31 0.13 89 1012.8
20260902101545 57 4 0.0 2.0 0.00 0.31 0.13 89 1012.9
20260902101030 57 18 0.0 2.0 0.00 0.31 0.13 89 1012.9
20260902100534 57 48 0.0 1.0 0.00 0.31 0.13 89 1012.9
20260902100053 57 0 0.0 1.0 0.00 0.31 0.13 89 1012.9
20260902095533 56 19 0.0 2.0 0.00 0.34 0.13 89 1012.8
20260902095032 56 0 0.0 2.0 0.00 0.34 0.13 89 1012.9
20260902094554 56 92 1.0 1.0 0.00 0.34 0.13 89 1012.8
20260902094032 56 0 0.0 1.0 0.00 0.34 0.13 89 1012.9
20260902093532 56 0 0.0 1.0 0.00 0.34 0.13 89 1012.9
20260902093047 56 72 1.0 1.0 0.00 0.34 0.13 89 1012.9
20260902092532 56 75 1.0 1.0 0.02 0.34 0.13 89 1012.9
20260902092036 56 98 0.0 1.0 0.02 0.34 0.13 89 1012.9
20260902091541 56 91 0.0 1.0 0.03 0.34 0.13 89 1012.9
20260902091031 56 58 0.0 1.0 0.03 0.34 0.13 89 1012.9
20260902090608 55 0 0.0 1.0 0.03 0.34 0.13 89 1013.2
20260902090043 56 0 0.0 1.0 0.03 0.34 0.13 89 1013.2
20260902085532 56 69 0.0 1.0 0.03 0.40 0.13 89 1013.1
20260902085032 56 0 0.0 1.0 0.03 0.40 0.13 89 1013.2
20260902084558 55 73 0.0 1.0 0.03 0.40 0.13 89 1013.0
20260902084032 55 0 0.0 0.0 0.03 0.40 0.13 89 1013.1
20260902083533 55 0 0.0 0.0 0.03 0.39 0.12 89 1013.1
20260902083057 55 0 0.0 0.0 0.03 0.39 0.12 89 1013.1
20260902082532 55 0 0.0 0.0 0.02 0.37 0.11 89 1013.0
20260902082032 55 0 0.0 0.0 0.02 0.37 0.10 89 1013.2
20260902081544 55 0 0.0 0.0 0.03 0.37 0.10 89 1013.1
20260902081033 55 0 0.0 1.0 0.02 0.36 0.09 89 1013.2
20260902080533 55 0 0.0 1.0 0.02 0.36 0.09 89 1013.1
20260902075535 55 81 0.0 1.0 0.03 0.41 0.09 89 1013.1
20260902075032 55 0 0.0 1.0 0.03 0.41 0.09 89 1013.3
20260902074543 54 0 0.0 1.0 0.03 0.41 0.09 89 1013.1
20260902074032 54 85 0.0 1.0 0.03 0.41 0.09 89 1013.2
20260902073532 54 270 0.0 1.0 0.03 0.41 0.09 89 1013.3
20260902073046 54 74 0.0 2.0 0.03 0.40 0.08 89 1013.2
20260902072532 54 91 0.0 2.0 0.02 0.40 0.07 89 1013.3
20260902072034 54 83 1.0 1.0 0.03 0.40 0.07 89 1013.1
20260902071544 54 70 0.0 1.0 0.02 0.39 0.07 89 1013.3
20260902071033 54 82 0.0 1.0 0.02 0.39 0.07 89 1013.2
20260902070533 54 0 0.0 1.0 0.03 0.39 0.07 89 1013.2
20260902070047 54 77 0.0 1.0 0.03 0.39 0.07 89 1013.2
20260902065533 54 87 0.0 1.0 0.02 0.40 0.06 89 1013.2
20260902065031 54 87 0.0 2.0 0.02 0.40 0.06 89 1013.2
20260902064554 54 52 0.0 2.0 0.01 0.39 0.05 89 1013.1
20260902064032 54 136 0.0 2.0 0.01 0.39 0.05 89 1013.2
20260902063532 55 27 0.0 1.0 0.02 0.39 0.05 89 1013.2
20260902063044 55 27 0.0 1.0 0.02 0.39 0.05 89 1013.1
20260902062533 55 27 0.0 1.0 0.02 0.39 0.05 89 1013.2
20260902062033 55 53 0.0 1.0 0.01 0.38 0.04 89 1013.3
20260902061032 55 0 0.0 1.0 0.01 0.38 0.04 89 1013.2
20260902060532 55 0 0.0 1.0 0.01 0.37 0.03 89 1013.3
20260902060053 55 0 0.0 1.0 0.01 0.37 0.03 89 1013.3
20260902055532 55 84 0.0 1.0 0.01 0.37 0.03 89 1013.3
20260902055032 55 91 0.0 1.0 0.01 0.37 0.03 89 1013.3
20260902054549 55 105 0.0 1.0 0.02 0.37 0.03 89 1013.3
20260902054033 55 0 0.0 0.0 0.02 0.37 0.03 89 1013.2
20260902053532 55 0 0.0 0.0 0.01 0.37 0.03 89 1013.3
20260902053045 55 0 0.0 0.0 0.01 0.37 0.03 89 1013.3
20260902052531 55 0 0.0 0.0 0.01 0.37 0.03 89 1013.4
20260902052031 55 0 0.0 0.0 0.01 0.37 0.03 89 1013.4
20260902051544 55 0 0.0 0.0 0.01 0.37 0.03 89 1013.5
20260902051032 55 0 0.0 0.0 0.01 0.37 0.03 89 1013.5
20260902050535 55 0 0.0 0.0 0.01 0.36 0.02 89 1013.6
20260902050051 55 0 0.0 0.0 0.01 0.36 0.02 89 1013.6
20260902045532 55 0 0.0 0.0 0.01 0.36 0.02 89 1013.6
20260902045032 55 0 0.0 0.0 0.00 0.35 0.01 89 1013.6
20260902044546 55 0 0.0 0.0 0.00 0.35 0.01 89 1013.6
20260902044032 55 0 0.0 0.0 0.00 0.35 0.01 89 1013.5
20260902043531 55 0 0.0 0.0 0.00 0.35 0.01 89 1013.6
20260902043103 55 0 0.0 0.0 0.00 0.35 0.01 89 1013.7
20260902042531 55 0 0.0 0.0 0.00 0.35 0.01 88 1013.6
20260902042032 55 0 0.0 0.0 0.00 0.35 0.01 88 1013.6
20260902041550 55 0 0.0 0.0 0.00 0.35 0.01 88 1013.6
20260902041032 55 0 0.0 0.0 0.00 0.35 0.01 88 1013.7
20260902040531 55 0 0.0 0.0 0.00 0.34 0.00 89 1013.6
20260902040051 55 0 0.0 0.0 0.00 0.34 0.00 89 1013.8
20260902035533 55 0 0.0 0.0 0.00 0.34 0.00 89 1013.8
20260902035032 55 0 0.0 0.0 0.00 0.34 0.00 89 1013.8
20260902034546 55 0 0.0 0.0 0.00 0.34 0.00 89 1013.9
20260902034035 55 0 0.0 0.0 0.00 0.34 0.00 89 1013.8
20260902033532 55 0 0.0 0.0 0.00 0.34 0.00 89 1013.8
20260902033102 55 0 0.0 0.0 0.00 0.34 0.00 88 1013.8
20260902032534 55 0 0.0 0.0 0.00 0.34 0.00 88 1013.8
20260902032031 55 0 0.0 0.0 0.00 0.34 0.00 88 1013.8
20260902031545 55 0 0.0 0.0 0.00 0.34 0.00 88 1013.8
20260902031032 55 0 0.0 0.0 0.00 0.34 0.00 88 1013.9
20260902030535 55 0 0.0 0.0 0.00 0.34 0.00 88 1013.8
20260902030049 55 0 0.0 0.0 0.00 0.34 0.00 88 1013.8
20260902025531 55 0 0.0 0.0 0.00 0.34 0.00 88 1013.8
20260902025033 55 0 0.0 0.0 0.00 0.34 0.00 88 1013.9
20260902024545 55 0 0.0 0.0 0.00 0.34 0.00 88 1014.0
20260902024031 55 0 0.0 0.0 0.00 0.34 0.00 88 1013.9
20260902023531 55 0 0.0 0.0 0.00 0.34 0.00 88 1013.9
20260902023043 55 0 0.0 0.0 0.00 0.34 0.00 88 1014.0
20260902022533 55 0 0.0 0.0 0.00 0.34 0.00 88 1014.0
20260902022033 55 0 0.0 0.0 0.00 0.34 0.00 88 1014.1
20260902021543 55 0 0.0 0.0 0.00 0.34 0.00 88 1014.0
20260902021034 55 0 0.0 0.0 0.00 0.34 0.00 88 1014.1
20260902020532 55 0 0.0 0.0 0.00 0.34 0.00 88 1014.0
20260902020051 55 0 0.0 0.0 0.00 0.34 0.00 88 1014.1
20260902015530 55 0 0.0 0.0 0.00 0.34 0.00 88 1014.2
20260902015030 55 0 0.0 0.0 0.00 0.34 0.00 88 1014.2
20260902014547 55 0 0.0 1.0 0.00 0.34 0.00 88 1014.2
20260902014029 55 0 0.0 1.0 0.00 0.34 0.00 88 1014.2
20260902013530 55 84 0.0 1.0 0.00 0.34 0.00 88 1014.2
20260902013044 55 0 0.0 1.0 0.00 0.34 0.00 88 1014.2
20260902012529 55 86 0.0 1.0 0.00 0.34 0.00 88 1014.3
20260902012029 55 0 0.0 0.0 0.00 0.34 0.00 88 1014.2
20260902011545 55 0 0.0 0.0 0.00 0.34 0.00 88 1014.2
20260902011030 55 0 0.0 0.0 0.00 0.34 0.00 88 1014.3
20260902010530 55 0 0.0 0.0 0.00 0.34 0.00 88 1014.2
20260902010054 55 0 0.0 1.0 0.00 0.34 0.00 88 1014.3
20260902005531 55 0 0.0 1.0 0.00 0.34 0.00 88 1014.3
20260902005033 56 0 0.0 1.0 0.00 0.34 0.00 88 1014.3
20260902004554 55 0 0.0 0.0 0.00 0.34 0.00 88 1014.2
20260902004031 55 0 0.0 0.0 0.00 0.34 0.00 88 1014.3
20260902003531 55 0 0.0 0.0 0.00 0.34 0.00 88 1014.3
20260902003050 55 0 0.0 0.0 0.00 0.34 0.00 88 1014.3
20260902002531 55 0 0.0 0.0 0.00 0.34 0.00 88 1014.4
20260902002031 55 0 0.0 0.0 0.00 0.34 0.00 88 1014.3
20260902001546 55 0 0.0 1.0 0.00 0.34 0.00 88 1014.3
20260902001031 55 0 0.0 1.0 0.00 0.34 0.00 88 1014.3
20260902000531 56 0 0.0 1.0 0.00 0.34 0.00 88 1014.3
20260902000056 56 259 0.0 1.0 0.00 0.34 0.00 88 1014.2
20260901235532 55 278 0.0 2.0 0.00 0.34 0.00 88 1014.3
20260901235031 55 302 0.0 2.0 0.01 0.34 0.00 88 1014.3
20260901234559 56 269 0.0 1.0 0.01 0.34 0.00 88 1014.2
20260901234035 55 297 0.0 1.0 0.01 0.34 0.00 88 1014.3
20260901233531 56 307 0.0 1.0 0.01 0.34 0.00 88 1014.4
20260901233047 55 264 0.0 1.0 0.01 0.34 0.00 88 1014.4
20260901232533 56 288 0.0 1.0 0.01 0.34 0.00 88 1014.4
20260901232032 56 0 0.0 1.0 0.00 0.33 0.00 88 1014.5
20260901231545 56 0 0.0 1.0 0.00 0.33 0.00 88 1014.5
20260901231031 55 0 0.0 1.0 0.00 0.33 0.00 88 1014.4
20260901230531 56 0 0.0 1.0 0.00 0.33 0.00 88 1014.4
20260901230047 56 0 0.0 0.0 0.00 0.33 0.00 88 1014.5
20260901225532 56 0 0.0 0.0 0.00 0.33 0.33 88 1014.5
20260901225031 56 0 0.0 1.0 0.00 0.33 0.33 88 1014.5
20260901224544 56 0 0.0 1.0 0.00 0.33 0.33 88 1014.5
20260901224028 56 0 0.0 1.0 0.00 0.33 0.33 88 1014.4
20260901223531 56 0 0.0 1.0 0.00 0.33 0.33 88 1014.3
20260901223046 56 0 0.0 0.0 0.00 0.33 0.33 88 1014.2